{"data":{"norad_id":68082,"epoch":"2026-09-17T14:03:03.076128Z","epoch_age_seconds":307215,"freshness":"STALE","line1":"1 68082U 26042P   26260.58545227 -.00003926  00000+0 -10518-3 0  9991","line2":"2 68082  53.1539   3.2290 0001494  79.9441 280.1730 15.34380375 31745","mean_motion":15.34380375,"eccentricity":0.0001494,"inclination_deg":53.1539,"raan_deg":3.229,"arg_perigee_deg":79.9441,"mean_anomaly_deg":280.173,"bstar":-0.00010518,"rev_number":3174,"period_min":93.848958410981,"perigee_km":461.73954021816,"apogee_km":463.78360071102,"semimajor_km":6840.8985704646,"source":"CELESTRAK","updated_at":"2026-09-20T09:00:43.780263Z"}}